Date_and_time,latitude,longitude,wind_speed,RelWindDirFrom,WindDirFrom,air_pressure,air_temperature,relative_humidity,Temp,platform_speed_wrt_ground,air_pressure_at_mean_sea_level,platform_orientation
2018-05-28 23:40,50.6304516666667,-96.9807616666667,7.2,8.1,21,988.90,21.0,57,14.07,0.0,1014.76,360.0
2018-05-28 23:50,50.6304516666667,-96.9807616666667,7.3,8.0,24,988.72,20.9,59,14.11,0.0,1014.58,360.0
2018-05-29 00:00,50.63045,-96.9807616666667,7.6,8.3,20,988.46,20.7,59,14.47,0.0,1014.33,90.0
2018-05-29 00:10,50.63045,-96.98076,7.6,8.4,19,988.36,20.7,58,14.73,0.0,1014.23,90.0
2018-05-29 00:20,50.6304516666667,-96.9807616666667,8.5,9.1,20,988.13,20.7,59,14.69,0.0,1013.99,90.0
2018-05-29 00:30,50.6304516666667,-96.9807583333333,8.7,9.4,17,987.91,20.5,59,14.46,0.0,1013.77,90.0
2018-05-29 00:40,50.6304516666667,-96.98076,8.6,9.5,13,987.77,20.9,52,14.56,0.0,1013.62,90.0
2018-05-29 00:50,50.6304516666667,-96.98076,8.7,9.7,14,987.62,21.4,49,14.60,0.0,1013.46,90.0
2018-05-29 01:00,50.6304516666667,-96.98076,8.9,10.0,14,987.50,21.3,51,14.61,0.0,1013.32,360.0
2018-05-29 01:10,50.6304633333333,-96.98076,8.2,9.8,13,987.40,21.3,52,14.85,0.0,1013.23,360.0
2018-05-29 01:20,50.6304533333333,-96.9807566666667,8.1,9.1,12,987.34,21.2,53,15.10,0.0,1013.17,360.0
2018-05-29 01:30,50.63045,-96.9807533333333,7.5,9.3,9,987.30,21.1,51,15.11,0.0,1013.14,360.0
2018-05-29 01:40,50.63045,-96.980755,7.6,8.6,9,987.29,21.1,52,15.01,0.0,1013.13,360.0
2018-05-29 01:50,50.6304466666667,-96.9807483333333,6.5,7.7,7,987.38,20.8,54,15.25,0.0,1013.24,360.0
2018-05-29 02:00,50.6304483333333,-96.980755,6.3,7.5,10,987.39,20.8,54,15.38,0.0,1013.25,360.0
2018-05-29 02:10,50.6304283333333,-96.980755,6.6,7.6,12,987.34,20.6,57,15.50,0.0,1013.21,360.0
2018-05-29 02:20,50.6304483333333,-96.9807533333333,6.3,7.2,11,987.34,20.3,61,15.56,0.0,1013.23,360.0
2018-05-29 02:30,50.63045,-96.9807516666667,6.3,7.5,10,987.38,20.3,61,15.54,0.0,1013.26,360.0
2018-05-29 02:40,50.630465,-96.9807583333333,6.7,7.8,9,987.44,20.1,63,15.49,0.0,1013.31,360.0
2018-05-29 02:50,50.6304483333333,-96.980765,6.7,7.8,10,987.48,20.1,62,15.43,0.0,1013.35,360.0
2018-05-29 03:00,50.6304483333333,-96.9807616666667,6.6,7.8,15,987.54,20.0,62,15.58,0.0,1013.42,360.0
2018-05-29 03:10,50.6304483333333,-96.9807633333333,6.6,7.5,16,987.49,19.7,66,15.65,0.0,1013.38,360.0
2018-05-29 03:20,50.630475,-96.9807583333333,6.2,7.0,16,987.47,19.3,71,15.79,0.0,1013.38,360.0
2018-05-29 03:30,50.6304433333333,-96.9807533333333,5.1,5.9,9,987.53,19.0,73,15.92,0.0,1013.46,360.0
2018-05-29 03:40,50.6304516666667,-96.9807616666667,4.4,5.3,3,987.55,19.0,70,16.20,0.0,1013.49,360.0
2018-05-29 03:50,50.6304616666667,-96.9807416666667,4.2,4.8,6,987.56,19.0,69,16.33,0.0,1013.51,360.0
2018-05-29 04:00,50.6304333333333,-96.980765,4.5,5.4,14,987.48,19.1,68,16.32,0.0,1013.43,360.0
2018-05-29 04:10,50.6304416666667,-96.98076,4.3,5.8,18,987.42,19.1,66,16.18,0.0,1013.37,360.0
2018-05-29 04:20,50.6304433333333,-96.980765,6.2,8.5,31,987.37,19.2,63,16.29,0.0,1013.32,360.0
2018-05-29 04:30,50.6304416666667,-96.98076,5.5,7.4,19,987.41,19.3,60,16.29,0.0,1013.36,360.0
2018-05-29 04:40,50.6304416666667,-96.9807566666667,4.9,7.3,14,987.38,19.2,62,16.33,0.0,1013.34,360.0
2018-05-29 04:50,50.63044,-96.9807566666667,5.0,6.1,9,987.21,19.0,63,16.28,0.0,1013.18,360.0
2018-05-29 05:00,50.63044,-96.980765,4.6,5.8,359,987.12,18.8,65,16.28,0.0,1013.11,228.3
2018-05-29 05:10,50.6304466666667,-96.980765,4.5,5.8,356,987.11,18.7,65,16.20,0.0,1013.12,228.3
2018-05-29 05:20,50.630445,-96.98077,5.4,7.2,2,986.99,18.7,65,16.24,0.0,1013.02,228.3
2018-05-29 05:30,50.6304516666667,-96.98077,6.5,9.1,13,986.85,18.9,60,16.29,0.0,1012.86,228.3
2018-05-29 05:40,50.6304466666667,-96.9807616666667,8.4,12.0,25,986.59,19.4,54,16.26,0.0,1012.56,228.3
2018-05-29 05:50,50.630445,-96.9807616666667,8.6,11.2,35,986.44,19.4,55,16.31,0.0,1012.41,228.3
2018-05-29 06:00,50.630445,-96.98076,7.7,9.1,36,986.39,19.2,58,16.41,0.0,1012.37,360.0
2018-05-29 06:10,50.630445,-96.98076,6.3,8.3,35,986.39,19.0,60,16.26,0.0,1012.38,360.0
2018-05-29 06:20,50.630445,-96.9807616666667,4.0,5.1,17,986.48,18.7,67,16.20,0.0,1012.47,360.0
2018-05-29 06:30,50.6304433333333,-96.98076,2.8,3.9,4,986.42,18.5,64,16.37,0.0,1012.42,360.0
2018-05-29 06:40,50.6304433333333,-96.9807616666667,2.7,3.7,3,986.34,18.5,60,16.52,0.0,1012.35,360.0
2018-05-29 06:50,50.630405,-96.9807483333333,3.7,5.5,44,986.29,18.6,61,16.46,0.0,1012.31,360.0
2018-05-29 07:00,50.6304216666667,-96.9807566666667,3.6,5.1,53,986.20,18.6,63,16.40,0.0,1012.22,165.5
2018-05-29 07:10,50.630445,-96.9807583333333,1.8,2.6,50,986.13,18.5,67,16.47,0.0,1012.16,165.5
2018-05-29 07:20,50.630445,-96.9807533333333,1.1,1.7,40,986.00,18.4,66,16.62,0.0,1012.01,165.5
2018-05-29 07:30,50.6304483333333,-96.9807583333333,0.7,1.4,20,985.83,18.3,66,16.70,0.0,1011.82,165.5
2018-05-29 07:40,50.6304316666667,-96.980755,1.2,1.9,38,985.63,18.3,65,16.65,0.0,1011.61,165.5
2018-05-29 07:50,50.6304383333333,-96.98075,1.7,2.2,70,985.51,18.4,65,16.66,0.0,1011.50,165.5
2018-05-29 08:00,50.63044,-96.9807533333333,1.7,2.1,76,985.32,18.3,69,16.70,0.0,1011.31,90.0
2018-05-29 08:10,50.6304416666667,-96.9807533333333,1.7,2.2,70,985.09,18.1,73,16.73,0.0,1011.10,90.0
2018-05-29 08:20,50.6304416666667,-96.980755,1.6,2.4,76,984.98,18.0,72,16.70,0.0,1011.01,90.0
2018-05-29 08:30,50.6304416666667,-96.9807566666667,2.2,2.6,58,984.87,18.0,71,16.69,0.0,1010.89,90.0
2018-05-29 08:40,50.63041,-96.980735,2.4,3.1,16,984.69,17.7,78,16.70,0.0,1010.71,90.0
2018-05-29 08:50,50.6304266666667,-96.9807583333333,2.6,3.4,352,984.51,17.3,73,16.67,0.0,1010.55,90.0
2018-05-29 09:00,50.6304433333333,-96.9807616666667,3.1,4.5,30,984.38,17.9,67,16.66,0.0,1010.40,0.0
2018-05-29 09:10,50.6304316666667,-96.98074,3.6,4.1,30,984.26,18.0,69,16.64,0.0,1010.26,0.0
2018-05-29 09:20,50.6304383333333,-96.9807566666667,4.5,5.8,21,983.95,17.9,77,16.63,0.0,1009.96,0.0
2018-05-29 09:30,50.63044,-96.9807533333333,4.3,5.3,26,983.89,17.8,75,16.61,0.0,1009.90,0.0
2018-05-29 09:40,50.6304416666667,-96.9807533333333,3.8,4.4,28,983.72,17.8,72,16.60,0.0,1009.73,0.0
2018-05-29 09:50,50.63044,-96.9807533333333,3.4,4.0,42,983.64,18.0,69,16.64,0.0,1009.64,0.0
2018-05-29 10:00,50.6304416666667,-96.980755,3.1,3.8,38,983.48,17.9,70,16.76,0.0,1009.49,25.7
2018-05-29 10:10,50.6304416666667,-96.980755,3.2,4.6,65,983.51,17.9,70,16.85,0.0,1009.52,25.7
2018-05-29 10:20,50.6304416666667,-96.9807566666667,3.2,4.5,95,983.57,17.9,71,16.88,0.0,1009.58,25.7
2018-05-29 10:30,50.63044,-96.9807566666667,3.7,4.6,108,983.58,17.8,71,16.91,0.0,1009.61,25.7
2018-05-29 10:40,50.63044,-96.9807566666667,4.0,4.9,112,983.61,17.7,74,16.96,0.0,1009.66,25.7
2018-05-29 10:50,50.63044,-96.9807566666667,3.6,4.8,111,983.44,17.6,75,16.93,0.0,1009.46,25.7
2018-05-29 11:00,50.6304416666667,-96.9807566666667,3.8,4.6,102,983.25,17.6,79,16.91,0.0,1009.27,270.0
2018-05-29 11:10,50.63044,-96.9807566666667,2.2,3.5,84,983.19,17.5,82,16.91,0.0,1009.22,270.0
2018-05-29 11:20,50.63044,-96.9807566666667,1.8,2.7,44,983.12,17.3,82,16.93,0.0,1009.16,270.0
2018-05-29 11:30,50.63044,-96.9807566666667,2.2,2.7,62,983.05,17.3,80,16.98,0.0,1009.08,270.0
2018-05-29 11:40,50.63044,-96.9807566666667,1.8,2.4,68,983.01,17.4,81,17.01,0.0,1009.03,270.0
2018-05-29 11:50,50.6304316666667,-96.9807616666667,2.2,3.0,90,982.94,17.5,82,17.00,0.0,1008.96,270.0
2018-05-29 12:00,50.63045,-96.98076,2.7,3.5,95,982.88,17.6,82,17.01,0.0,1008.89,360.0
2018-05-29 12:10,50.630435,-96.98076,2.1,2.9,96,982.93,17.7,82,16.99,0.0,1008.94,360.0
2018-05-29 12:20,50.6304383333333,-96.980755,1.2,2.3,69,982.88,17.8,78,17.01,0.0,1008.89,360.0
2018-05-29 12:30,50.63044,-96.980755,1.7,2.4,73,982.71,17.9,76,17.02,0.0,1008.71,360.0
2018-05-29 12:40,50.6304416666667,-96.980755,1.2,2.1,51,982.67,18.1,77,17.03,0.0,1008.66,360.0
2018-05-29 12:50,50.6304416666667,-96.9807533333333,2.1,2.7,61,982.64,18.1,78,17.06,0.0,1008.63,360.0
2018-05-29 13:00,50.6304433333333,-96.9807533333333,3.5,4.5,81,982.63,18.4,77,17.07,0.0,1008.62,90.0
2018-05-29 13:10,50.63046,-96.9807583333333,5.0,6.0,80,982.46,18.4,76,17.05,0.0,1008.45,90.0
2018-05-29 13:20,50.6304516666667,-96.9807533333333,4.9,6.0,85,982.33,18.3,76,17.07,0.0,1008.32,90.0
2018-05-29 13:30,50.63045,-96.9807516666667,4.9,5.8,87,982.37,18.4,72,17.13,0.0,1008.36,90.0
2018-05-29 13:40,50.6304466666667,-96.9807433333333,3.8,5.2,91,982.40,18.7,70,17.09,0.0,1008.37,90.0
2018-05-29 13:50,50.630445,-96.9807466666667,3.6,4.5,88,982.37,18.9,72,17.11,0.0,1008.33,90.0
2018-05-29 14:00,50.6304583333333,-96.9807516666667,4.0,5.7,93,982.34,18.9,73,17.06,0.0,1008.29,360.0
2018-05-29 14:10,50.6304483333333,-96.98075,3.9,4.9,99,982.31,19.2,73,17.00,0.0,1008.24,360.0
2018-05-29 14:20,50.6304416666667,-96.980725,3.9,5.1,98,982.15,19.4,73,17.08,0.0,1008.06,360.0
2018-05-29 14:30,50.63044,-96.980735,5.2,6.1,104,982.05,19.5,73,17.12,0.0,1007.95,360.0
2018-05-29 14:40,50.6304416666667,-96.9807416666667,3.9,5.3,107,982.00,19.2,74,17.07,0.0,1007.91,360.0
2018-05-29 14:50,50.6304433333333,-96.9807433333333,2.7,3.7,92,981.99,19.5,73,17.03,0.0,1007.87,360.0
2018-05-29 15:00,50.6304616666667,-96.9807566666667,2.1,3.0,80,981.94,19.6,72,17.02,0.0,1007.81,360.0
2018-05-29 15:10,50.6304583333333,-96.98075,2.0,2.9,63,982.00,19.5,73,17.09,0.0,1007.89,360.0
2018-05-29 15:20,50.6304416666667,-96.9807633333333,3.3,4.0,70,981.90,19.2,77,17.11,0.0,1007.80,360.0
2018-05-29 15:30,50.630455,-96.9807633333333,3.7,4.1,57,981.78,18.8,80,17.23,0.0,1007.67,360.0
2018-05-29 15:40,50.6304416666667,-96.98075,3.4,3.9,49,981.62,19.0,80,17.24,0.0,1007.50,360.0
2018-05-29 15:50,50.630445,-96.980755,3.9,4.6,72,981.52,19.4,79,17.18,0.0,1007.37,360.0
2018-05-29 16:00,50.6304466666667,-96.9807566666667,4.8,5.8,62,981.36,19.4,83,17.10,0.0,1007.19,347.4
2018-05-29 16:10,50.6304183333333,-96.980745,5.5,6.3,59,981.33,19.4,83,17.11,0.0,1007.15,347.4
2018-05-29 16:20,50.6304366666667,-96.98076,6.0,6.9,64,981.35,19.4,86,17.27,0.0,1007.17,347.4
2018-05-29 16:30,50.6304416666667,-96.9807566666667,5.5,6.6,60,981.28,19.4,88,17.38,0.0,1007.11,347.4
2018-05-29 16:40,50.6304416666667,-96.9807566666667,5.1,5.8,66,981.17,19.6,89,17.39,0.0,1006.98,347.4
2018-05-29 16:50,50.6304416666667,-96.9807566666667,5.2,6.3,90,981.12,20.4,85,17.42,0.0,1006.89,347.4
2018-05-29 17:00,50.6304466666667,-96.98071,4.2,5.0,97,981.11,21.6,78,17.46,0.0,1006.82,116.7
2018-05-29 17:10,50.6304416666667,-96.9807366666667,3.6,4.3,86,980.97,22.2,75,17.50,0.0,1006.67,116.7
2018-05-29 17:20,50.6304366666667,-96.9807483333333,2.4,3.6,47,980.92,21.8,81,17.51,0.0,1006.65,116.7
2018-05-29 17:30,50.6304366666667,-96.980735,2.6,3.7,26,980.79,20.9,85,17.52,0.0,1006.55,116.7
2018-05-29 17:40,50.6304383333333,-96.9807483333333,2.6,3.2,46,980.69,21.0,85,17.51,0.0,1006.43,116.7
2018-05-29 17:50,50.63044,-96.9807533333333,2.3,3.0,38,980.51,21.4,85,17.61,0.0,1006.22,116.7
2018-05-29 18:00,50.63044,-96.980755,2.3,2.7,54,980.39,21.8,81,17.60,0.0,1006.08,360.0
2018-05-29 18:10,50.63044,-96.9807533333333,2.8,4.4,83,980.38,22.5,74,17.61,0.0,1006.04,360.0
2018-05-29 18:20,50.630445,-96.9807633333333,4.6,5.2,86,980.38,23.3,73,17.67,0.0,1006.00,360.0
2018-05-29 18:30,50.6304366666667,-96.980745,5.1,5.7,75,980.26,23.2,76,17.72,0.0,1005.88,360.0
2018-05-29 18:40,50.6304366666667,-96.980745,6.3,9.1,67,980.11,23.0,77,17.73,0.0,1005.69,360.0
2018-05-29 18:50,50.6304366666667,-96.980745,7.6,8.7,64,979.94,22.7,81,17.91,0.0,1005.48,360.0
2018-05-29 19:00,50.6304383333333,-96.980745,7.5,9.4,57,979.78,21.6,94,18.16,0.0,1005.35,119.2
2018-05-29 19:10,50.63044,-96.980745,5.7,8.2,43,979.78,21.2,91,18.03,0.0,1005.38,119.2
2018-05-29 19:20,50.6304533333333,-96.9807816666667,4.9,6.3,26,979.82,21.2,90,18.00,0.0,1005.45,119.2
2018-05-29 19:30,50.630445,-96.98075,6.5,7.4,41,979.69,21.1,89,17.86,0.0,1005.32,119.2
2018-05-29 19:40,50.630445,-96.9807483333333,6.7,7.3,43,979.60,21.2,87,17.78,0.0,1005.20,119.2
2018-05-29 19:50,50.6304433333333,-96.98075,6.1,6.8,34,979.47,21.3,89,17.85,0.0,1005.06,119.2
2018-05-29 20:00,50.630445,-96.98075,6.2,7.2,43,979.27,21.6,86,17.96,0.0,1004.80,255.8
2018-05-29 20:10,50.6304433333333,-96.9807483333333,5.3,7.6,43,979.08,21.7,85,17.91,0.0,1004.57,255.8
2018-05-29 20:20,50.6304433333333,-96.98075,3.9,5.9,23,978.99,21.7,88,17.93,0.0,1004.49,255.8
2018-05-29 20:30,50.6304283333333,-96.9808083333333,4.8,6.2,356,978.87,21.9,85,17.98,0.0,1004.36,255.8
2018-05-29 20:40,50.63044,-96.9807533333333,6.0,7.1,38,978.69,22.3,77,18.25,0.0,1004.17,255.8
2018-05-29 20:50,50.630405,-96.9807433333333,4.2,5.9,19,978.64,22.5,80,18.37,0.0,1004.16,255.8
2018-05-29 21:00,50.63042,-96.98074,6.0,7.7,20,978.31,22.5,80,18.34,0.0,1003.84,165.5
2018-05-29 21:10,50.6304233333333,-96.9807616666667,6.4,7.7,42,978.12,22.3,82,18.39,0.0,1003.65,165.5
2018-05-29 21:20,50.63043,-96.980745,5.9,6.9,50,977.94,22.2,86,18.51,0.0,1003.48,165.5
2018-05-29 21:30,50.6304383333333,-96.9807633333333,5.8,6.7,51,977.71,22.1,87,18.57,0.0,1003.23,165.5
2018-05-29 21:40,50.630435,-96.98076,4.0,5.4,22,977.64,22.2,84,18.61,0.0,1003.15,165.5
2018-05-29 21:50,50.6304383333333,-96.9807566666667,3.2,4.0,12,977.58,22.3,85,18.64,0.0,1003.07,165.5
2018-05-29 22:00,50.6304383333333,-96.9807583333333,2.9,3.8,359,977.53,22.8,84,18.67,0.0,1003.00,270.0
2018-05-29 22:10,50.6304366666667,-96.9807583333333,2.7,3.9,358,977.44,22.7,84,18.60,0.0,1002.92,270.0
2018-05-29 22:20,50.6304266666667,-96.9807716666667,3.4,6.5,52,977.25,22.5,85,18.41,0.0,1002.72,270.0
2018-05-29 22:30,50.6304316666667,-96.9807516666667,9.2,10.9,74,976.87,22.7,82,18.31,0.0,1002.31,270.0
2018-05-29 22:40,50.6304383333333,-96.980745,10.0,11.4,72,976.59,22.6,81,18.28,0.0,1002.01,270.0
2018-05-29 22:50,50.63044,-96.9807466666667,9.5,10.6,71,976.56,22.6,80,18.59,0.0,1001.98,270.0
2018-05-29 23:00,50.63044,-96.9807516666667,8.8,9.7,74,976.66,22.4,83,18.89,0.0,1002.10,90.0
2018-05-29 23:10,50.6304416666667,-96.980765,8.4,9.2,78,976.67,22.3,85,19.02,0.0,1002.12,90.0
2018-05-29 23:20,50.6304383333333,-96.98074,8.2,9.6,76,976.55,22.1,87,18.82,0.0,1002.01,90.0
2018-05-29 23:30,50.6304416666667,-96.9807516666667,10.3,12.2,72,976.50,21.8,91,18.71,0.0,1001.97,90.0
2018-05-29 23:40,50.6304433333333,-96.9807566666667,11.3,12.6,74,976.55,21.9,90,18.57,0.0,1002.01,90.0
2018-05-29 23:50,50.6304433333333,-96.9807583333333,12.0,13.4,78,976.49,22.1,85,18.54,0.0,1001.92,90.0
